Time,TemperatureF,DewpointF,PressureIn,WindDirection,WindDirectionDegrees,WindSpeedMPH,WindSpeedGustMPH,Humidity,HourlyPrecipIn,Conditions,Clouds,dailyrainin,SoftwareType,DateUTC
2013-08-15 00:01:00,55.0,52.1,29.58,West,270,0.0,3.0,90,0.00,,,0.00,Weather View 32 v70,2013-08-15 04:01:00,
2013-08-15 00:06:00,54.0,51.4,29.58,West,270,0.0,3.0,91,0.00,,,0.00,Weather View 32 v70,2013-08-15 04:06:00,
2013-08-15 00:11:00,54.0,51.4,29.59,West,270,0.0,3.0,91,0.00,,,0.00,Weather View 32 v70,2013-08-15 04:11:00,
2013-08-15 00:16:00,54.0,51.4,29.59,West,270,0.0,3.0,91,0.00,,,0.00,Weather View 32 v70,2013-08-15 04:16:00,
2013-08-15 00:21:00,53.0,50.4,29.59,West,270,0.0,3.0,91,0.00,,,0.00,Weather View 32 v70,2013-08-15 04:21:00,
2013-08-15 00:26:00,53.0,50.7,29.59,West,270,0.0,3.0,92,0.00,,,0.00,Weather View 32 v70,2013-08-15 04:26:00,
2013-08-15 00:31:00,53.0,51.0,29.60,West,270,0.0,3.0,93,0.00,,,0.00,Weather View 32 v70,2013-08-15 04:31:00,
2013-08-15 00:36:00,52.0,50.3,29.60,West,270,0.0,3.0,94,0.00,,,0.00,Weather View 32 v70,2013-08-15 04:36:00,
2013-08-15 00:41:00,52.0,50.9,29.60,West,270,0.0,3.0,96,0.00,,,0.00,Weather View 32 v70,2013-08-15 04:41:00,
2013-08-15 00:46:00,52.0,51.2,29.60,West,270,0.0,1.0,97,0.00,,,0.00,Weather View 32 v70,2013-08-15 04:46:00,
2013-08-15 00:51:00,52.0,51.2,29.61,West,270,0.0,0.0,97,0.00,,,0.00,Weather View 32 v70,2013-08-15 04:51:00,
2013-08-15 00:56:00,52.0,51.2,29.61,West,270,0.0,0.0,97,0.00,,,0.00,Weather View 32 v70,2013-08-15 04:56:00,
2013-08-15 01:01:00,52.0,51.2,29.61,West,270,0.0,0.0,97,0.00,,,0.00,Weather View 32 v70,2013-08-15 05:01:00,
2013-08-15 01:06:00,51.0,50.2,29.61,West,270,0.0,0.0,97,0.00,,,0.00,Weather View 32 v70,2013-08-15 05:06:00,
2013-08-15 01:11:00,51.0,50.2,29.61,West,270,0.0,0.0,97,0.00,,,0.00,Weather View 32 v70,2013-08-15 05:11:00,
2013-08-15 01:16:00,51.0,50.2,29.61,West,270,0.0,0.0,97,0.00,,,0.00,Weather View 32 v70,2013-08-15 05:16:00,
2013-08-15 01:21:00,51.0,50.2,29.61,West,270,0.0,0.0,97,0.00,,,0.00,Weather View 32 v70,2013-08-15 05:21:00,
2013-08-15 01:26:00,51.0,50.2,29.61,West,270,0.0,0.0,97,0.00,,,0.00,Weather View 32 v70,2013-08-15 05:26:00,
2013-08-15 01:31:00,51.0,50.2,29.61,West,270,0.0,0.0,97,0.00,,,0.00,Weather View 32 v70,2013-08-15 05:31:00,
2013-08-15 01:36:00,52.0,51.2,29.61,West,270,1.0,2.0,97,0.00,,,0.00,Weather View 32 v70,2013-08-15 05:36:00,
2013-08-15 01:41:00,53.0,51.9,29.61,West,270,0.0,2.0,96,0.00,,,0.00,Weather View 32 v70,2013-08-15 05:41:00,
2013-08-15 01:46:00,53.0,51.9,29.61,West,270,2.0,3.0,96,0.00,,,0.00,Weather View 32 v70,2013-08-15 05:46:00,
2013-08-15 01:51:00,53.0,51.3,29.60,West,270,1.0,3.0,94,0.00,,,0.00,Weather View 32 v70,2013-08-15 05:51:00,
2013-08-15 01:56:00,53.0,51.3,29.60,West,270,0.0,3.0,94,0.00,,,0.00,Weather View 32 v70,2013-08-15 05:56:00,
2013-08-15 02:01:00,53.0,51.0,29.60,West,270,0.0,3.0,93,0.00,,,0.00,Weather View 32 v70,2013-08-15 06:01:00,
2013-08-15 02:06:00,53.0,51.3,29.60,West,270,2.0,3.0,94,0.00,,,0.00,Weather View 32 v70,2013-08-15 06:06:00,
2013-08-15 02:11:00,53.0,51.3,29.61,West,270,0.0,3.0,94,0.00,,,0.00,Weather View 32 v70,2013-08-15 06:11:00,
2013-08-15 02:16:00,53.0,51.3,29.61,West,270,0.0,3.0,94,0.00,,,0.00,Weather View 32 v70,2013-08-15 06:16:00,
2013-08-15 02:21:00,53.0,51.9,29.61,West,270,0.0,3.0,96,0.00,,,0.00,Weather View 32 v70,2013-08-15 06:21:00,
2013-08-15 02:26:00,53.0,51.6,29.61,West,270,2.0,3.0,95,0.00,,,0.00,Weather View 32 v70,2013-08-15 06:26:00,
2013-08-15 02:31:00,53.0,51.6,29.61,West,270,0.0,3.0,95,0.00,,,0.00,Weather View 32 v70,2013-08-15 06:31:00,
2013-08-15 02:36:00,53.0,51.6,29.61,West,270,0.0,3.0,95,0.00,,,0.00,Weather View 32 v70,2013-08-15 06:36:00,
2013-08-15 02:41:00,52.0,50.9,29.61,West,270,0.0,3.0,96,0.00,,,0.00,Weather View 32 v70,2013-08-15 06:41:00,
2013-08-15 02:46:00,52.0,50.9,29.61,West,270,2.0,3.0,96,0.00,,,0.00,Weather View 32 v70,2013-08-15 06:46:00,
2013-08-15 02:51:00,52.0,51.2,29.61,West,270,0.0,3.0,97,0.00,,,0.00,Weather View 32 v70,2013-08-15 06:51:00,
2013-08-15 02:56:00,52.0,50.9,29.61,West,270,3.0,3.0,96,0.00,,,0.00,Weather View 32 v70,2013-08-15 06:56:00,
2013-08-15 03:01:00,53.0,51.6,29.61,West,270,2.0,4.0,95,0.00,,,0.00,Weather View 32 v70,2013-08-15 07:01:00,
2013-08-15 03:06:00,53.0,51.3,29.61,West,270,3.0,5.0,94,0.00,,,0.00,Weather View 32 v70,2013-08-15 07:06:00,
2013-08-15 03:11:00,53.0,51.6,29.61,West,270,1.0,5.0,95,0.00,,,0.00,Weather View 32 v70,2013-08-15 07:11:00,
2013-08-15 03:16:00,53.0,51.3,29.61,West,270,2.0,5.0,94,0.00,,,0.00,Weather View 32 v70,2013-08-15 07:16:00,
2013-08-15 03:21:00,54.0,52.0,29.61,West,270,2.0,5.0,93,0.00,,,0.00,Weather View 32 v70,2013-08-15 07:21:00,
2013-08-15 03:26:00,54.0,52.0,29.61,WNW,292,2.0,5.0,93,0.00,,,0.00,Weather View 32 v70,2013-08-15 07:26:00,
2013-08-15 03:31:00,53.0,51.3,29.61,WNW,292,2.0,5.0,94,0.00,,,0.00,Weather View 32 v70,2013-08-15 07:31:00,
2013-08-15 03:36:00,53.0,51.3,29.61,West,270,2.0,5.0,94,0.00,,,0.00,Weather View 32 v70,2013-08-15 07:36:00,
2013-08-15 03:41:00,53.0,51.3,29.62,West,270,3.0,5.0,94,0.00,,,0.00,Weather View 32 v70,2013-08-15 07:41:00,
2013-08-15 03:46:00,53.0,51.3,29.62,WNW,292,3.0,5.0,94,0.00,,,0.00,Weather View 32 v70,2013-08-15 07:46:00,
2013-08-15 03:51:00,53.0,51.6,29.62,WNW,292,3.0,5.0,95,0.00,,,0.00,Weather View 32 v70,2013-08-15 07:51:00,
2013-08-15 03:56:00,53.0,51.6,29.62,NW,315,3.0,5.0,95,0.00,,,0.00,Weather View 32 v70,2013-08-15 07:56:00,
2013-08-15 04:01:00,53.0,51.6,29.63,West,270,4.0,5.0,95,0.00,,,0.00,Weather View 32 v70,2013-08-15 08:01:00,
2013-08-15 04:06:00,53.0,51.3,29.63,WNW,292,2.0,6.0,94,0.00,,,0.00,Weather View 32 v70,2013-08-15 08:06:00,
2013-08-15 04:11:00,53.0,51.6,29.63,WNW,292,3.0,6.0,95,0.00,,,0.00,Weather View 32 v70,2013-08-15 08:11:00,
2013-08-15 04:16:00,53.0,51.6,29.63,WNW,292,2.0,6.0,95,0.00,,,0.00,Weather View 32 v70,2013-08-15 08:16:00,
2013-08-15 04:21:00,53.0,51.6,29.63,West,270,2.0,6.0,95,0.00,,,0.00,Weather View 32 v70,2013-08-15 08:21:00,
2013-08-15 04:26:00,53.0,51.3,29.63,WNW,292,3.0,6.0,94,0.00,,,0.00,Weather View 32 v70,2013-08-15 08:26:00,
2013-08-15 04:31:00,53.0,51.6,29.63,WNW,292,3.0,6.0,95,0.00,,,0.00,Weather View 32 v70,2013-08-15 08:31:00,
2013-08-15 04:36:00,53.0,51.6,29.63,WNW,292,2.0,6.0,95,0.00,,,0.00,Weather View 32 v70,2013-08-15 08:36:00,
2013-08-15 04:41:00,53.0,51.6,29.63,West,270,0.0,6.0,95,0.00,,,0.00,Weather View 32 v70,2013-08-15 08:41:00,
2013-08-15 04:46:00,53.0,51.6,29.63,WNW,292,3.0,6.0,95,0.00,,,0.00,Weather View 32 v70,2013-08-15 08:46:00,
2013-08-15 04:51:00,53.0,51.3,29.63,West,270,3.0,6.0,94,0.00,,,0.00,Weather View 32 v70,2013-08-15 08:51:00,
2013-08-15 04:56:00,53.0,51.3,29.63,West,270,1.0,6.0,94,0.00,,,0.00,Weather View 32 v70,2013-08-15 08:56:00,
2013-08-15 05:01:00,53.0,51.3,29.64,NW,315,3.0,6.0,94,0.00,,,0.00,Weather View 32 v70,2013-08-15 09:01:00,
2013-08-15 05:06:00,53.0,51.6,29.64,NW,315,4.0,5.0,95,0.00,,,0.00,Weather View 32 v70,2013-08-15 09:06:00,
2013-08-15 05:11:00,53.0,51.9,29.64,WNW,292,2.0,5.0,96,0.00,,,0.00,Weather View 32 v70,2013-08-15 09:11:00,
2013-08-15 05:16:00,52.0,50.9,29.64,WNW,292,3.0,5.0,96,0.00,,,0.00,Weather View 32 v70,2013-08-15 09:16:00,
2013-08-15 05:21:00,52.0,50.9,29.65,NW,315,2.0,5.0,96,0.00,,,0.00,Weather View 32 v70,2013-08-15 09:21:00,
2013-08-15 05:26:00,52.0,50.9,29.65,WNW,292,2.0,5.0,96,0.00,,,0.00,Weather View 32 v70,2013-08-15 09:26:00,
2013-08-15 05:31:00,52.0,51.2,29.65,WNW,292,3.0,5.0,97,0.00,,,0.00,Weather View 32 v70,2013-08-15 09:31:00,
2013-08-15 05:36:00,52.0,51.2,29.65,WNW,292,3.0,5.0,97,0.00,,,0.00,Weather View 32 v70,2013-08-15 09:36:00,
2013-08-15 05:41:00,52.0,50.9,29.66,West,270,1.0,5.0,96,0.00,,,0.00,Weather View 32 v70,2013-08-15 09:41:00,
2013-08-15 05:46:00,52.0,51.2,29.66,West,270,1.0,5.0,97,0.00,,,0.00,Weather View 32 v70,2013-08-15 09:46:00,
2013-08-15 05:51:00,52.0,51.2,29.66,West,270,3.0,5.0,97,0.00,,,0.00,Weather View 32 v70,2013-08-15 09:51:00,
2013-08-15 05:56:00,52.0,51.2,29.66,West,270,1.0,5.0,97,0.00,,,0.00,Weather View 32 v70,2013-08-15 09:56:00,
2013-08-15 06:01:00,52.0,51.2,29.67,West,270,3.0,5.0,97,0.00,,,0.00,Weather View 32 v70,2013-08-15 10:01:00,
2013-08-15 06:06:00,52.0,51.2,29.67,WNW,292,3.0,5.0,97,0.00,,,0.00,Weather View 32 v70,2013-08-15 10:06:00,
2013-08-15 06:11:00,52.0,51.2,29.67,West,270,3.0,5.0,97,0.00,,,0.00,Weather View 32 v70,2013-08-15 10:11:00,
2013-08-15 06:16:00,52.0,51.2,29.67,West,270,2.0,5.0,97,0.00,,,0.00,Weather View 32 v70,2013-08-15 10:16:00,
2013-08-15 06:21:00,52.0,51.2,29.67,West,270,2.0,4.0,97,0.00,,,0.00,Weather View 32 v70,2013-08-15 10:21:00,
2013-08-15 06:26:00,52.0,51.2,29.67,West,270,2.0,4.0,97,0.00,,,0.00,Weather View 32 v70,2013-08-15 10:26:00,
2013-08-15 06:31:00,52.0,51.2,29.67,West,270,2.0,6.0,97,0.00,,,0.00,Weather View 32 v70,2013-08-15 10:31:00,
2013-08-15 06:36:00,52.0,50.9,29.67,West,270,2.0,6.0,96,0.00,,,0.00,Weather View 32 v70,2013-08-15 10:36:00,
2013-08-15 06:41:00,52.0,50.9,29.67,WNW,292,2.0,6.0,96,0.00,,,0.00,Weather View 32 v70,2013-08-15 10:41:00,
2013-08-15 06:46:00,52.0,50.9,29.67,West,270,3.0,6.0,96,0.00,,,0.00,Weather View 32 v70,2013-08-15 10:46:00,
2013-08-15 06:51:00,53.0,51.9,29.68,NW,315,1.0,6.0,96,0.00,,,0.00,Weather View 32 v70,2013-08-15 10:51:00,
2013-08-15 06:56:00,53.0,51.9,29.68,West,270,3.0,6.0,96,0.00,,,0.00,Weather View 32 v70,2013-08-15 10:56:00,
2013-08-15 07:01:00,53.0,51.9,29.68,West,270,2.0,6.0,96,0.00,,,0.00,Weather View 32 v70,2013-08-15 11:01:00,
2013-08-15 07:06:00,53.0,51.9,29.68,WNW,292,3.0,6.0,96,0.00,,,0.00,Weather View 32 v70,2013-08-15 11:06:00,
2013-08-15 07:11:00,53.0,51.9,29.68,West,270,3.0,6.0,96,0.00,,,0.00,Weather View 32 v70,2013-08-15 11:11:00,
2013-08-15 07:16:00,53.0,51.6,29.68,WNW,292,2.0,6.0,95,0.00,,,0.00,Weather View 32 v70,2013-08-15 11:16:00,
2013-08-15 07:21:00,54.0,52.3,29.68,West,270,3.0,6.0,94,0.00,,,0.00,Weather View 32 v70,2013-08-15 11:21:00,
2013-08-15 07:26:00,54.0,52.0,29.68,West,270,2.0,6.0,93,0.00,,,0.00,Weather View 32 v70,2013-08-15 11:26:00,
2013-08-15 07:31:00,54.0,51.7,29.69,WNW,292,3.0,6.0,92,0.00,,,0.00,Weather View 32 v70,2013-08-15 11:31:00,
2013-08-15 07:36:00,55.0,52.4,29.69,West,270,4.0,6.0,91,0.00,,,0.00,Weather View 32 v70,2013-08-15 11:36:00,
2013-08-15 07:41:00,55.0,52.4,29.68,West,270,6.0,7.0,91,0.00,,,0.00,Weather View 32 v70,2013-08-15 11:41:00,
2013-08-15 07:46:00,56.0,53.1,29.68,West,270,2.0,7.0,90,0.00,,,0.00,Weather View 32 v70,2013-08-15 11:46:00,
2013-08-15 07:51:00,56.0,53.1,29.68,West,270,2.0,7.0,90,0.00,,,0.00,Weather View 32 v70,2013-08-15 11:51:00,
2013-08-15 07:56:00,57.0,52.5,29.68,WNW,292,4.0,7.0,85,0.00,,,0.00,Weather View 32 v70,2013-08-15 11:56:00,
2013-08-15 08:01:00,57.0,52.5,29.67,NW,315,4.0,7.0,85,0.00,,,0.00,Weather View 32 v70,2013-08-15 12:01:00,
2013-08-15 08:06:00,58.0,53.2,29.67,WNW,292,5.0,7.0,84,0.00,,,0.00,Weather View 32 v70,2013-08-15 12:06:00,
2013-08-15 08:11:00,58.0,53.5,29.67,WNW,292,4.0,7.0,85,0.00,,,0.00,Weather View 32 v70,2013-08-15 12:11:00,
2013-08-15 08:16:00,58.0,52.9,29.67,West,270,2.0,7.0,83,0.00,,,0.00,Weather View 32 v70,2013-08-15 12:16:00,
2013-08-15 08:21:00,59.0,52.8,29.67,West,270,3.0,7.0,80,0.00,,,0.00,Weather View 32 v70,2013-08-15 12:21:00,
2013-08-15 08:26:00,59.0,52.8,29.67,NW,315,3.0,7.0,80,0.00,,,0.00,Weather View 32 v70,2013-08-15 12:26:00,
2013-08-15 08:31:00,60.0,52.8,29.67,WNW,292,2.0,7.0,77,0.00,,,0.00,Weather View 32 v70,2013-08-15 12:31:00,
2013-08-15 08:36:00,61.0,53.7,29.67,WNW,292,2.0,7.0,77,0.00,,,0.00,Weather View 32 v70,2013-08-15 12:36:00,
2013-08-15 08:41:00,61.0,53.0,29.66,NW,315,6.0,7.0,75,0.00,,,0.00,Weather View 32 v70,2013-08-15 12:41:00,
2013-08-15 08:46:00,62.0,54.0,29.66,West,270,3.0,7.0,75,0.00,,,0.00,Weather View 32 v70,2013-08-15 12:46:00,
2013-08-15 08:51:00,62.0,53.2,29.66,West,270,6.0,7.0,73,0.00,,,0.00,Weather View 32 v70,2013-08-15 12:51:00,
2013-08-15 08:56:00,63.0,54.6,29.66,West,270,0.0,7.0,74,0.00,,,0.00,Weather View 32 v70,2013-08-15 12:56:00,
2013-08-15 09:01:00,63.0,53.8,29.66,WNW,292,3.0,7.0,72,0.00,,,0.00,Weather View 32 v70,2013-08-15 13:01:00,
2013-08-15 09:06:00,64.0,55.1,29.66,West,270,0.0,7.0,73,0.00,,,0.00,Weather View 32 v70,2013-08-15 13:06:00,
2013-08-15 09:11:00,64.0,55.9,29.66,North,360,0.0,7.0,75,0.00,,,0.00,Weather View 32 v70,2013-08-15 13:11:00,
2013-08-15 09:16:00,64.0,54.0,29.66,WNW,292,5.0,7.0,70,0.00,,,0.00,Weather View 32 v70,2013-08-15 13:16:00,
2013-08-15 09:21:00,64.0,54.8,29.67,West,270,4.0,7.0,72,0.00,,,0.00,Weather View 32 v70,2013-08-15 13:21:00,
2013-08-15 09:26:00,64.0,54.4,29.67,SW,225,2.0,7.0,71,0.00,,,0.00,Weather View 32 v70,2013-08-15 13:26:00,
2013-08-15 09:31:00,64.0,53.6,29.66,West,270,4.0,8.0,69,0.00,,,0.00,Weather View 32 v70,2013-08-15 13:31:00,
2013-08-15 09:36:00,64.0,54.8,29.66,West,270,2.0,8.0,72,0.00,,,0.00,Weather View 32 v70,2013-08-15 13:36:00,
2013-08-15 09:41:00,65.0,55.3,29.66,West,270,3.0,8.0,71,0.00,,,0.00,Weather View 32 v70,2013-08-15 13:41:00,
2013-08-15 09:46:00,65.0,53.7,29.66,NW,315,1.0,8.0,67,0.00,,,0.00,Weather View 32 v70,2013-08-15 13:46:00,
2013-08-15 09:51:00,65.0,53.7,29.66,West,270,5.0,8.0,67,0.00,,,0.00,Weather View 32 v70,2013-08-15 13:51:00,
2013-08-15 09:56:00,65.0,54.6,29.66,NW,315,2.0,8.0,69,0.00,,,0.00,Weather View 32 v70,2013-08-15 13:56:00,
2013-08-15 10:01:00,66.0,55.1,29.66,NW,315,4.0,8.0,68,0.00,,,0.00,Weather View 32 v70,2013-08-15 14:01:00,
2013-08-15 10:06:00,66.0,53.4,29.66,WSW,247,8.0,8.0,64,0.00,,,0.00,Weather View 32 v70,2013-08-15 14:06:00,
2013-08-15 10:11:00,66.0,53.0,29.66,West,270,4.0,9.0,63,0.00,,,0.00,Weather View 32 v70,2013-08-15 14:11:00,
2013-08-15 10:16:00,66.0,53.9,29.66,West,270,6.0,9.0,65,0.00,,,0.00,Weather View 32 v70,2013-08-15 14:16:00,
2013-08-15 10:21:00,66.0,52.1,29.66,WSW,247,4.0,9.0,61,0.00,,,0.00,Weather View 32 v70,2013-08-15 14:21:00,
2013-08-15 10:26:00,66.0,53.0,29.66,NW,315,4.0,9.0,63,0.00,,,0.00,Weather View 32 v70,2013-08-15 14:26:00,
2013-08-15 10:31:00,67.0,53.5,29.65,NW,315,5.0,9.0,62,0.00,,,0.00,Weather View 32 v70,2013-08-15 14:31:00,
2013-08-15 10:36:00,67.0,52.2,29.65,SW,225,5.0,9.0,59,0.00,,,0.00,Weather View 32 v70,2013-08-15 14:36:00,
2013-08-15 10:41:00,67.0,51.7,29.65,West,270,6.0,9.0,58,0.00,,,0.00,Weather View 32 v70,2013-08-15 14:41:00,
2013-08-15 10:47:00,68.0,54.0,29.65,West,270,5.0,9.0,61,0.00,,,0.00,Weather View 32 v70,2013-08-15 14:47:00,
2013-08-15 10:54:00,68.0,52.2,29.65,West,270,7.0,9.0,57,0.00,,,0.00,Weather View 32 v70,2013-08-15 14:54:00,
2013-08-15 10:59:00,68.0,51.2,29.65,West,270,2.0,10.0,55,0.00,,,0.00,Weather View 32 v70,2013-08-15 14:59:00,
2013-08-15 11:09:00,69.0,51.6,29.64,West,270,6.0,10.0,54,0.00,,,0.00,Weather View 32 v70,2013-08-15 15:09:00,
2013-08-15 11:14:00,69.0,48.4,29.64,West,270,3.0,10.0,48,0.00,,,0.00,Weather View 32 v70,2013-08-15 15:14:00,
2013-08-15 11:19:00,69.0,50.1,29.64,West,270,4.0,10.0,51,0.00,,,0.00,Weather View 32 v70,2013-08-15 15:19:00,
2013-08-15 11:24:00,69.0,51.6,29.64,SW,225,1.0,10.0,54,0.00,,,0.00,Weather View 32 v70,2013-08-15 15:24:00,
2013-08-15 11:29:00,70.0,51.5,29.64,South,180,5.0,10.0,52,0.00,,,0.00,Weather View 32 v70,2013-08-15 15:29:00,
2013-08-15 11:34:00,70.0,48.8,29.64,West,270,8.0,12.0,47,0.00,,,0.00,Weather View 32 v70,2013-08-15 15:34:00,
2013-08-15 11:39:00,70.0,50.5,29.64,West,270,5.0,12.0,50,0.00,,,0.00,Weather View 32 v70,2013-08-15 15:39:00,
2013-08-15 11:44:00,71.0,54.0,29.64,West,270,1.0,12.0,55,0.00,,,0.00,Weather View 32 v70,2013-08-15 15:44:00,
2013-08-15 11:49:00,71.0,50.3,29.64,WSW,247,6.0,12.0,48,0.00,,,0.00,Weather View 32 v70,2013-08-15 15:49:00,
2013-08-15 11:54:00,71.0,51.4,29.64,West,270,5.0,12.0,50,0.00,,,0.00,Weather View 32 v70,2013-08-15 15:54:00,
2013-08-15 11:59:00,71.0,51.4,29.63,SSW,202,1.0,12.0,50,0.00,,,0.00,Weather View 32 v70,2013-08-15 15:59:00,
2013-08-15 12:09:00,71.0,49.7,29.63,NW,315,7.0,12.0,47,0.00,,,0.00,Weather View 32 v70,2013-08-15 16:09:00,
2013-08-15 12:14:00,71.0,50.8,29.63,NW,315,7.0,12.0,49,0.00,,,0.00,Weather View 32 v70,2013-08-15 16:14:00,
2013-08-15 12:20:00,71.0,51.9,29.63,NE,45,1.0,12.0,51,0.00,,,0.00,Weather View 32 v70,2013-08-15 16:20:00,
2013-08-15 12:25:00,71.0,49.7,29.63,WNW,292,4.0,12.0,47,0.00,,,0.00,Weather View 32 v70,2013-08-15 16:25:00,
2013-08-15 12:30:00,71.0,49.7,29.63,West,270,7.0,12.0,47,0.00,,,0.00,Weather View 32 v70,2013-08-15 16:30:00,
2013-08-15 12:35:00,71.0,48.5,29.63,WNW,292,6.0,12.0,45,0.00,,,0.00,Weather View 32 v70,2013-08-15 16:35:00,
2013-08-15 12:40:00,71.0,47.9,29.63,SW,225,7.0,13.0,44,0.00,,,0.00,Weather View 32 v70,2013-08-15 16:40:00,
2013-08-15 12:45:00,71.0,49.7,29.63,WSW,247,4.0,13.0,47,0.00,,,0.00,Weather View 32 v70,2013-08-15 16:45:00,
2013-08-15 12:50:00,72.0,50.6,29.62,West,270,5.0,13.0,47,0.00,,,0.00,Weather View 32 v70,2013-08-15 16:50:00,
2013-08-15 12:55:00,73.0,52.7,29.62,West,270,4.0,13.0,49,0.00,,,0.00,Weather View 32 v70,2013-08-15 16:55:00,
2013-08-15 13:00:00,73.0,49.1,29.61,West,270,7.0,13.0,43,0.00,,,0.00,Weather View 32 v70,2013-08-15 17:00:00,
2013-08-15 13:05:00,73.0,50.3,29.61,SW,225,7.0,13.0,45,0.00,,,0.00,Weather View 32 v70,2013-08-15 17:05:00,
2013-08-15 13:10:00,73.0,53.2,29.61,West,270,3.0,13.0,50,0.00,,,0.00,Weather View 32 v70,2013-08-15 17:10:00,
2013-08-15 13:15:00,74.0,50.6,29.61,West,270,2.0,13.0,44,0.00,,,0.00,Weather View 32 v70,2013-08-15 17:15:00,
2013-08-15 13:20:00,74.0,51.8,29.61,WNW,292,5.0,13.0,46,0.00,,,0.00,Weather View 32 v70,2013-08-15 17:20:00,
2013-08-15 13:25:00,73.0,50.9,29.61,West,270,5.0,13.0,46,0.00,,,0.00,Weather View 32 v70,2013-08-15 17:25:00,
2013-08-15 13:30:00,73.0,50.9,29.61,NW,315,1.0,13.0,46,0.00,,,0.00,Weather View 32 v70,2013-08-15 17:30:00,
2013-08-15 13:35:00,73.0,50.3,29.61,NW,315,3.0,13.0,45,0.00,,,0.00,Weather View 32 v70,2013-08-15 17:35:00,
2013-08-15 13:40:00,73.0,52.7,29.61,West,270,1.0,11.0,49,0.00,,,0.00,Weather View 32 v70,2013-08-15 17:40:00,
2013-08-15 13:46:00,73.0,50.9,29.61,NW,315,6.0,10.0,46,0.00,,,0.00,Weather View 32 v70,2013-08-15 17:46:00,
2013-08-15 13:51:00,72.0,52.8,29.61,SW,225,3.0,10.0,51,0.00,,,0.00,Weather View 32 v70,2013-08-15 17:51:00,
2013-08-15 13:56:00,72.0,50.0,29.61,West,270,4.0,10.0,46,0.00,,,0.00,Weather View 32 v70,2013-08-15 17:56:00,
2013-08-15 14:01:00,73.0,51.5,29.61,West,270,1.0,10.0,47,0.00,,,0.00,Weather View 32 v70,2013-08-15 18:01:00,
2013-08-15 14:06:00,73.0,50.3,29.61,SW,225,3.0,9.0,45,0.00,,,0.00,Weather View 32 v70,2013-08-15 18:06:00,
2013-08-15 14:10:00,74.0,51.8,29.60,NW,315,3.0,9.0,46,0.00,,,0.00,Weather View 32 v70,2013-08-15 18:10:00,
2013-08-15 14:11:00,74.0,51.8,29.60,West,270,7.0,9.0,46,0.00,,,0.00,Weather View 32 v70,2013-08-15 18:11:00,
2013-08-15 14:12:00,73.0,49.1,29.60,West,270,4.0,9.0,43,0.00,,,0.00,Weather View 32 v70,2013-08-15 18:12:00,
2013-08-15 14:13:00,73.0,49.1,29.60,WSW,247,6.0,9.0,43,0.00,,,0.00,Weather View 32 v70,2013-08-15 18:13:00,
2013-08-15 14:14:00,73.0,50.3,29.60,West,270,6.0,9.0,45,0.00,,,0.00,Weather View 32 v70,2013-08-15 18:14:00,
2013-08-15 14:15:00,73.0,50.9,29.60,WNW,292,8.0,9.0,46,0.00,,,0.00,Weather View 32 v70,2013-08-15 18:15:00,
2013-08-15 14:25:00,73.0,51.5,29.60,West,270,6.0,9.0,47,0.00,,,0.00,Weather View 32 v70,2013-08-15 18:25:00,
2013-08-15 14:31:00,71.0,49.7,29.62,West,270,5.0,10.0,47,0.00,,,0.00,Weather View 32 v70,2013-08-15 18:31:00,
2013-08-15 14:36:00,71.0,50.8,29.62,West,270,5.0,10.0,49,0.00,,,0.00,Weather View 32 v70,2013-08-15 18:36:00,
2013-08-15 14:41:00,72.0,50.6,29.62,SW,225,7.0,10.0,47,0.00,,,0.00,Weather View 32 v70,2013-08-15 18:41:00,
2013-08-15 14:46:00,73.0,50.9,29.62,West,270,5.0,10.0,46,0.00,,,0.00,Weather View 32 v70,2013-08-15 18:46:00,
2013-08-15 14:51:00,73.0,52.1,29.61,ESE,112,1.0,11.0,48,0.00,,,0.00,Weather View 32 v70,2013-08-15 18:51:00,
2013-08-15 15:10:00,72.0,51.7,29.61,West,270,2.0,11.0,49,0.00,,,0.00,Weather View 32 v70,2013-08-15 19:10:00,
2013-08-15 15:19:00,71.0,54.0,29.61,SW,225,0.0,11.0,55,0.00,,,0.00,Weather View 32 v70,2013-08-15 19:19:00,
2013-08-15 15:30:00,71.0,53.0,29.61,WSW,247,4.0,11.0,53,0.00,,,0.00,Weather View 32 v70,2013-08-15 19:30:00,
2013-08-15 15:39:00,71.0,51.9,29.61,WSW,247,3.0,11.0,51,0.00,,,0.00,Weather View 32 v70,2013-08-15 19:39:00,
2013-08-15 15:44:00,71.0,51.9,29.61,West,270,2.0,11.0,51,0.00,,,0.00,Weather View 32 v70,2013-08-15 19:44:00,
2013-08-15 15:49:00,71.0,51.9,29.61,West,270,5.0,9.0,51,0.00,,,0.00,Weather View 32 v70,2013-08-15 19:49:00,
2013-08-15 15:54:00,72.0,51.7,29.61,NW,315,5.0,9.0,49,0.00,,,0.00,Weather View 32 v70,2013-08-15 19:54:00,
2013-08-15 15:59:00,72.0,53.9,29.60,West,270,1.0,9.0,53,0.00,,,0.00,Weather View 32 v70,2013-08-15 19:59:00,
2013-08-15 16:09:00,73.0,57.8,29.59,South,180,0.0,9.0,59,0.00,,,0.00,Weather View 32 v70,2013-08-15 20:09:00,
2013-08-15 16:15:00,73.0,51.5,29.59,West,270,4.0,9.0,47,0.00,,,0.00,Weather View 32 v70,2013-08-15 20:15:00,
2013-08-15 16:20:00,73.0,51.5,29.59,West,270,0.0,9.0,47,0.00,,,0.00,Weather View 32 v70,2013-08-15 20:20:00,
2013-08-15 16:25:00,73.0,51.5,29.59,NW,315,4.0,9.0,47,0.00,,,0.00,Weather View 32 v70,2013-08-15 20:25:00,
2013-08-15 16:30:00,72.0,51.7,29.59,West,270,3.0,9.0,49,0.00,,,0.00,Weather View 32 v70,2013-08-15 20:30:00,
2013-08-15 16:35:00,72.0,52.8,29.59,West,270,0.0,9.0,51,0.00,,,0.00,Weather View 32 v70,2013-08-15 20:35:00,
2013-08-15 16:40:00,72.0,53.4,29.59,West,270,0.0,9.0,52,0.00,,,0.00,Weather View 32 v70,2013-08-15 20:40:00,
2013-08-15 16:45:00,72.0,53.4,29.59,West,270,1.0,9.0,52,0.00,,,0.00,Weather View 32 v70,2013-08-15 20:45:00,
2013-08-15 16:50:00,72.0,56.4,29.60,West,270,0.0,9.0,58,0.00,,,0.00,Weather View 32 v70,2013-08-15 20:50:00,
2013-08-15 16:55:00,72.0,54.4,29.60,West,270,2.0,9.0,54,0.00,,,0.00,Weather View 32 v70,2013-08-15 20:55:00,
2013-08-15 17:00:00,72.0,53.9,29.60,West,270,5.0,9.0,53,0.00,,,0.00,Weather View 32 v70,2013-08-15 21:00:00,
2013-08-15 17:09:00,72.0,51.7,29.60,WSW,247,4.0,8.0,49,0.00,,,0.00,Weather View 32 v70,2013-08-15 21:09:00,
2013-08-15 17:15:00,72.0,51.7,29.60,West,270,0.0,8.0,49,0.00,,,0.00,Weather View 32 v70,2013-08-15 21:15:00,
2013-08-15 17:20:00,72.0,51.7,29.60,WSW,247,4.0,8.0,49,0.00,,,0.00,Weather View 32 v70,2013-08-15 21:20:00,
2013-08-15 17:25:00,72.0,52.8,29.60,West,270,4.0,9.0,51,0.00,,,0.00,Weather View 32 v70,2013-08-15 21:25:00,
2013-08-15 17:30:00,73.0,52.7,29.59,West,270,1.0,9.0,49,0.00,,,0.00,Weather View 32 v70,2013-08-15 21:30:00,
2013-08-15 17:36:00,73.0,49.7,29.59,West,270,6.0,9.0,44,0.00,,,0.00,Weather View 32 v70,2013-08-15 21:36:00,
2013-08-15 17:44:00,73.0,50.3,29.59,WSW,247,2.0,9.0,45,0.00,,,0.00,Weather View 32 v70,2013-08-15 21:44:00,
2013-08-15 17:49:00,73.0,51.5,29.60,West,270,2.0,9.0,47,0.00,,,0.00,Weather View 32 v70,2013-08-15 21:49:00,
2013-08-15 17:54:00,73.0,53.2,29.60,NW,315,1.0,9.0,50,0.00,,,0.00,Weather View 32 v70,2013-08-15 21:54:00,
2013-08-15 17:59:00,73.0,51.5,29.61,West,270,2.0,9.0,47,0.00,,,0.00,Weather View 32 v70,2013-08-15 21:59:00,
2013-08-15 18:04:00,72.0,51.2,29.61,NW,315,2.0,9.0,48,0.00,,,0.00,Weather View 32 v70,2013-08-15 22:04:00,
2013-08-15 18:10:00,72.0,52.8,29.60,West,270,2.0,9.0,51,0.00,,,0.00,Weather View 32 v70,2013-08-15 22:10:00,
2013-08-15 18:15:00,72.0,51.2,29.60,West,270,2.0,9.0,48,0.00,,,0.00,Weather View 32 v70,2013-08-15 22:15:00,
2013-08-15 18:20:00,72.0,54.4,29.60,WSW,247,0.0,9.0,54,0.00,,,0.00,Weather View 32 v70,2013-08-15 22:20:00,
2013-08-15 18:25:00,72.0,53.4,29.60,WSW,247,1.0,9.0,52,0.00,,,0.00,Weather View 32 v70,2013-08-15 22:25:00,
2013-08-15 18:30:00,71.0,55.4,29.60,NW,315,2.0,9.0,58,0.00,,,0.00,Weather View 32 v70,2013-08-15 22:30:00,
2013-08-15 18:35:00,71.0,53.5,29.60,West,270,2.0,9.0,54,0.00,,,0.00,Weather View 32 v70,2013-08-15 22:35:00,
2013-08-15 18:40:00,70.0,53.0,29.62,West,270,2.0,9.0,55,0.00,,,0.00,Weather View 32 v70,2013-08-15 22:40:00,
2013-08-15 18:45:00,70.0,55.9,29.62,West,270,0.0,9.0,61,0.00,,,0.00,Weather View 32 v70,2013-08-15 22:45:00,
2013-08-15 18:50:00,69.0,56.3,29.62,West,270,0.0,9.0,64,0.00,,,0.00,Weather View 32 v70,2013-08-15 22:50:00,
2013-08-15 18:55:00,68.0,54.5,29.62,West,270,0.0,9.0,62,0.00,,,0.00,Weather View 32 v70,2013-08-15 22:55:00,
2013-08-15 19:01:00,67.0,54.8,29.63,West,270,0.0,9.0,65,0.00,,,0.00,Weather View 32 v70,2013-08-15 23:01:00,
2013-08-15 19:06:00,67.0,55.2,29.63,West,270,0.0,5.0,66,0.00,,,0.00,Weather View 32 v70,2013-08-15 23:06:00,
2013-08-15 19:11:00,66.0,54.7,29.63,West,270,0.0,5.0,67,0.00,,,0.00,Weather View 32 v70,2013-08-15 23:11:00,
2013-08-15 19:16:00,66.0,57.4,29.63,West,270,0.0,5.0,74,0.00,,,0.00,Weather View 32 v70,2013-08-15 23:16:00,
2013-08-15 19:21:00,65.0,54.2,29.64,West,270,0.0,5.0,68,0.00,,,0.00,Weather View 32 v70,2013-08-15 23:21:00,
2013-08-15 19:26:00,65.0,55.3,29.64,West,270,0.0,5.0,71,0.00,,,0.00,Weather View 32 v70,2013-08-15 23:26:00,
2013-08-15 19:34:00,64.0,55.1,29.64,West,270,0.0,4.0,73,0.00,,,0.00,Weather View 32 v70,2013-08-15 23:34:00,
2013-08-15 19:39:00,64.0,54.8,29.65,West,270,0.0,4.0,72,0.00,,,0.00,Weather View 32 v70,2013-08-15 23:39:00,
2013-08-15 19:44:00,64.0,54.4,29.65,West,270,1.0,3.0,71,0.00,,,0.00,Weather View 32 v70,2013-08-15 23:44:00,
2013-08-15 19:49:00,64.0,55.1,29.65,West,270,0.0,3.0,73,0.00,,,0.00,Weather View 32 v70,2013-08-15 23:49:00,
2013-08-15 19:55:00,64.0,54.0,29.65,West,270,1.0,3.0,70,0.00,,,0.00,Weather View 32 v70,2013-08-15 23:55:00,
2013-08-15 20:00:00,64.0,52.8,29.65,West,270,2.0,5.0,67,0.00,,,0.00,Weather View 32 v70,2013-08-16 00:00:00,
2013-08-15 20:05:00,65.0,53.3,29.65,WSW,247,3.0,5.0,66,0.00,,,0.00,Weather View 32 v70,2013-08-16 00:05:00,
2013-08-15 20:10:00,64.0,52.8,29.65,West,270,1.0,5.0,67,0.00,,,0.00,Weather View 32 v70,2013-08-16 00:10:00,
2013-08-15 20:15:00,64.0,53.2,29.65,West,270,0.0,5.0,68,0.00,,,0.00,Weather View 32 v70,2013-08-16 00:15:00,
2013-08-15 20:20:00,64.0,53.6,29.66,West,270,0.0,5.0,69,0.00,,,0.00,Weather View 32 v70,2013-08-16 00:20:00,
2013-08-15 20:25:00,64.0,52.8,29.66,West,270,2.0,5.0,67,0.00,,,0.00,Weather View 32 v70,2013-08-16 00:25:00,
2013-08-15 20:30:00,64.0,52.4,29.67,West,270,1.0,5.0,66,0.00,,,0.00,Weather View 32 v70,2013-08-16 00:30:00,
2013-08-15 20:35:00,64.0,52.8,29.67,West,270,1.0,5.0,67,0.00,,,0.00,Weather View 32 v70,2013-08-16 00:35:00,
2013-08-15 20:40:00,64.0,52.8,29.67,WSW,247,1.0,5.0,67,0.00,,,0.00,Weather View 32 v70,2013-08-16 00:40:00,
2013-08-15 20:45:00,63.0,52.2,29.67,WSW,247,1.0,5.0,68,0.00,,,0.00,Weather View 32 v70,2013-08-16 00:45:00,
2013-08-15 20:50:00,63.0,52.2,29.67,West,270,3.0,5.0,68,0.00,,,0.00,Weather View 32 v70,2013-08-16 00:50:00,
2013-08-15 20:55:00,63.0,52.2,29.67,SW,225,0.0,5.0,68,0.00,,,0.00,Weather View 32 v70,2013-08-16 00:55:00,
2013-08-15 21:00:00,63.0,53.0,29.68,SW,225,0.0,5.0,70,0.00,,,0.00,Weather View 32 v70,2013-08-16 01:00:00,
2013-08-15 21:05:00,63.0,53.0,29.68,SW,225,0.0,4.0,70,0.00,,,0.00,Weather View 32 v70,2013-08-16 01:05:00,
2013-08-15 21:10:00,62.0,52.5,29.68,SW,225,0.0,4.0,71,0.00,,,0.00,Weather View 32 v70,2013-08-16 01:10:00,
2013-08-15 21:16:00,62.0,52.8,29.68,SW,225,0.0,4.0,72,0.00,,,0.00,Weather View 32 v70,2013-08-16 01:16:00,
2013-08-15 21:24:00,62.0,52.5,29.69,West,270,1.0,4.0,71,0.00,,,0.00,Weather View 32 v70,2013-08-16 01:24:00,
2013-08-15 21:29:00,62.0,52.5,29.69,West,270,2.0,4.0,71,0.00,,,0.00,Weather View 32 v70,2013-08-16 01:29:00,
2013-08-15 21:34:00,62.0,52.5,29.69,West,270,1.0,4.0,71,0.00,,,0.00,Weather View 32 v70,2013-08-16 01:34:00,
2013-08-15 21:44:00,62.0,52.5,29.69,West,270,1.0,4.0,71,0.00,,,0.00,Weather View 32 v70,2013-08-16 01:44:00,
2013-08-15 21:50:00,62.0,52.5,29.69,West,270,2.0,4.0,71,0.00,,,0.00,Weather View 32 v70,2013-08-16 01:50:00,
2013-08-15 21:55:00,62.0,52.1,29.69,West,270,1.0,3.0,70,0.00,,,0.00,Weather View 32 v70,2013-08-16 01:55:00,
2013-08-15 21:59:00,62.0,52.1,29.69,West,270,2.0,3.0,70,0.00,,,0.00,Weather View 32 v70,2013-08-16 01:59:00,
2013-08-15 22:05:00,62.0,52.1,29.69,West,270,3.0,4.0,70,0.00,,,0.00,Weather View 32 v70,2013-08-16 02:05:00,
2013-08-15 22:10:00,63.0,52.6,29.69,West,270,3.0,5.0,69,0.00,,,0.00,Weather View 32 v70,2013-08-16 02:10:00,
2013-08-15 22:15:00,63.0,53.4,29.69,West,270,2.0,5.0,71,0.00,,,0.00,Weather View 32 v70,2013-08-16 02:15:00,
2013-08-15 22:20:00,62.0,52.8,29.70,West,270,3.0,5.0,72,0.00,,,0.00,Weather View 32 v70,2013-08-16 02:20:00,
2013-08-15 22:25:00,62.0,52.8,29.70,West,270,2.0,5.0,72,0.00,,,0.00,Weather View 32 v70,2013-08-16 02:25:00,
2013-08-15 22:30:00,62.0,53.2,29.70,West,270,3.0,5.0,73,0.00,,,0.00,Weather View 32 v70,2013-08-16 02:30:00,
2013-08-15 22:35:00,62.0,53.6,29.70,West,270,2.0,5.0,74,0.00,,,0.00,Weather View 32 v70,2013-08-16 02:35:00,
2013-08-15 22:40:00,61.0,53.0,29.70,West,270,3.0,5.0,75,0.00,,,0.00,Weather View 32 v70,2013-08-16 02:40:00,
2013-08-15 22:45:00,61.0,53.0,29.70,WNW,292,5.0,6.0,75,0.00,,,0.00,Weather View 32 v70,2013-08-16 02:45:00,
2013-08-15 22:50:00,61.0,53.0,29.71,West,270,3.0,6.0,75,0.00,,,0.00,Weather View 32 v70,2013-08-16 02:50:00,
2013-08-15 22:55:00,61.0,53.4,29.71,West,270,2.0,6.0,76,0.00,,,0.00,Weather View 32 v70,2013-08-16 02:55:00,
2013-08-15 23:00:00,60.0,52.8,29.71,West,270,2.0,6.0,77,0.00,,,0.00,Weather View 32 v70,2013-08-16 03:00:00,
2013-08-15 23:05:00,60.0,52.8,29.71,West,270,2.0,6.0,77,0.00,,,0.00,Weather View 32 v70,2013-08-16 03:05:00,
2013-08-15 23:10:00,60.0,53.1,29.71,West,270,1.0,6.0,78,0.00,,,0.00,Weather View 32 v70,2013-08-16 03:10:00,
2013-08-15 23:15:00,60.0,53.5,29.71,West,270,2.0,6.0,79,0.00,,,0.00,Weather View 32 v70,2013-08-16 03:15:00,
2013-08-15 23:20:00,60.0,53.8,29.71,West,270,0.0,6.0,80,0.00,,,0.00,Weather View 32 v70,2013-08-16 03:20:00,
2013-08-15 23:25:00,59.0,53.2,29.71,West,270,2.0,6.0,81,0.00,,,0.00,Weather View 32 v70,2013-08-16 03:25:00,
2013-08-15 23:30:00,59.0,53.2,29.72,NW,315,1.0,6.0,81,0.00,,,0.00,Weather View 32 v70,2013-08-16 03:30:00,
2013-08-15 23:35:00,59.0,53.5,29.72,NW,315,3.0,6.0,82,0.00,,,0.00,Weather View 32 v70,2013-08-16 03:35:00,
2013-08-15 23:40:00,59.0,53.8,29.72,NW,315,2.0,6.0,83,0.00,,,0.00,Weather View 32 v70,2013-08-16 03:40:00,
2013-08-15 23:45:00,59.0,54.2,29.72,NW,315,1.0,6.0,84,0.00,,,0.00,Weather View 32 v70,2013-08-16 03:45:00,
2013-08-15 23:50:00,58.0,53.5,29.71,NW,315,3.0,5.0,85,0.00,,,0.00,Weather View 32 v70,2013-08-16 03:50:00,
2013-08-15 23:55:00,58.0,53.5,29.71,NW,315,3.0,4.0,85,0.00,,,0.00,Weather View 32 v70,2013-08-16 03:55:00,